Luxembourg

Airport
ICAO code: 
ELLX
Summary
ICAO Region: 
EUR
Territory: 
Location: 
Luxembourg,
Elevation: 
1234 ft
Coordinates: 
Aerial View: 
49° 37' 24" N, 6° 12' 16" E
Metar
Observation
ELLX 252020Z 25010KT CAVOK 15/06 Q1020 NOSIG
Station
Luxembourg / Luxembourg
Date/Time
2022-05-25 20:20:00
Wind direction
250°
Wind speed
10 kts
Lowest cloud amount
clouds and visibility OK
Temperature
15°C
Dew point
6°C
Humidity
54%
QNH
1020 hPa
Weather condition
n/a

Description

International airport serving Luxembourg.

Climatology

Temperate Marine climate/Oceanic climate (Köppen climate classification Cfb). Moderately cool summer and comparatively warm winter with a temperature range of only 14°C. Prevailing south-westerly winds from the Atlantic Ocean.

Runways

Designator Length Width Surface Rops
6/24 4000 60 PEM Yes/Yes
Airport map: 
Aerial View: 

Accidents and Serious Incidents at or in the vicinity of ELLX

SKYbrary Partners:

Safety knowledge contributed by: